DO6GZ Weather Reports


Display with metric or nautical units.
time (UTC)temp
F
wind
direction
speed
MPH
gust
MPH
rain 1hr
in
rain 24hr
in
rain mn
in
humidity
%
barometer
mb
20260506184906 49 135 2.0 0.0 0.00 0.00 0.00 10 1009.3
20260506183839 49 180 2.0 0.0 0.00 0.00 0.00 10 1009.1
20260506182812 49 90 0.0 0.0 0.00 0.00 0.00 10 1009.0
20260506181744 49 315 2.0 0.0 0.00 0.00 0.00 10 1009.0
20260506180716 49 225 1.0 0.0 0.00 0.00 0.00 10 1008.9
20260506175649 50 135 3.0 0.0 0.01 0.00 0.00 10 1008.9
20260506174621 50 135 3.0 0.0 0.01 0.00 0.00 10 1008.8
20260506173554 50 135 3.0 0.0 0.01 0.00 0.00 10 1008.8
20260506172526 50 225 0.0 0.0 0.00 0.00 0.00 10 1008.7
20260506171459 50 315 0.0 0.0 0.00 0.00 0.00 10 1008.7
20260506170431 50 45 4.0 0.0 0.00 0.00 0.00 10 1008.6
20260506165404 50 135 2.0 0.0 0.00 0.00 0.00 10 1008.6
20260506164336 51 315 1.0 0.0 0.00 0.00 0.00 10 1008.4
20260506163309 51 135 1.0 0.0 0.00 0.00 0.00 10 1008.4
20260506162241 51 180 5.0 0.0 0.00 0.00 0.00 10 1008.4
20260506161214 51 135 0.0 0.0 0.00 0.00 0.00 10 1008.4
20260506160146 51 270 1.0 0.0 0.00 0.00 0.00 10 1008.3
20260506155118 51 135 2.0 0.0 0.00 0.00 0.00 10 1008.4
20260506154051 51 0.0 0.0 0.00 0.00 0.00 10 1008.4
20260506153023 51 90 6.0 0.0 0.00 0.00 0.00 10 1008.3
20260506150928 52 90 2.0 0.0 0.00 0.00 0.00 10 1008.3
20260506145901 52 135 5.0 0.0 0.00 0.00 0.00 10 1008.2
20260506144833 52 135 1.0 0.0 0.00 0.00 0.00 10 1008.3
20260506142738 52 315 2.0 0.0 0.00 0.00 0.00 10 1008.2
20260506141711 52 315 0.0 0.0 0.00 0.00 0.00 10 1008.1
20260506140643 52 315 1.0 0.0 0.00 0.00 0.00 10 1008.2
20260506135616 52 6.0 0.0 0.00 0.00 0.00 10 1008.2
20260506134548 52 135 3.0 0.0 0.00 0.00 0.00 10 1008.3
20260506133521 52 135 0.0 0.0 0.00 0.00 0.00 10 1008.2
20260506132453 52 45 5.0 0.0 0.00 0.00 0.00 10 1008.2
20260506131425 52 90 0.0 0.0 0.00 0.00 0.00 10 1008.2
20260506130358 51 315 4.0 0.0 0.00 0.00 0.00 10 1008.2
20260506123235 52 90 0.0 0.0 0.00 0.00 0.00 10 1008.1
20260506122208 51 270 0.0 0.0 0.00 0.00 0.00 10 1008.0
20260506121140 52 315 0.0 0.0 0.00 0.00 0.00 10 1007.9
20260506115045 52 270 2.0 0.0 0.00 0.00 0.00 10 1007.9
20260506114018 51 90 4.0 0.0 0.00 0.00 0.00 10 1007.9
20260506112950 51 135 3.0 0.0 0.00 0.00 0.00 10 1007.9
20260506111923 51 135 5.0 0.0 0.00 0.00 0.00 10 1007.9
20260506110855 52 135 0.0 0.0 0.00 0.00 0.00 10 1007.9
20260506105827 51 315 8.0 0.0 0.00 0.00 0.00 10 1007.9
20260506104800 50 135 0.0 0.0 0.00 0.00 0.00 10 1008.0
20260506103732 51 1.0 0.0 0.01 0.00 0.00 10 1007.9
20260506102705 51 90 0.0 0.0 0.01 0.00 0.00 10 1007.9
20260506101637 51 315 1.0 0.0 0.00 0.00 0.00 10 1007.7
20260506100610 51 270 0.0 0.0 0.00 0.00 0.00 10 1007.7
20260506095542 51 315 0.0 0.0 0.00 0.00 0.00 10 1007.7
20260506094515 50 315 0.0 0.0 0.00 0.00 0.00 10 1007.7
20260506092420 51 45 0.0 0.0 0.04 0.00 0.00 10 1007.5